Regional Weather Roundup
Issued by NWS Midland/Odessa, TX

Skip options and go directly to product.
Home | Oldest Version | Previous Version | Current Version | All | Graphics & Text | Save Text | Print | Product List | Glossary On

Skip product version selection by date and time.   
167
ASUS44 KMAF 010310
RWRMAF
MIDLAND AREA WEATHER ROUNDUP
NATIONAL WEATHER SERVICE MIDLAND TX
1000 PM CDT THU JUL 31 2014

...IN SOUTHWEST TEXAS AND SOUTHEAST NEW MEXICO...

CITY           SKY/WX    TMP DP  RH WIND       PRES   REMARKS
ALPINE         PTCLDY    73  59  61 NE5       30.24R
ANDREWS        FAIR      77  58  51 SE6       30.12R
ARTESIA        MOCLDY    73  63  68 CALM      30.14R
BIG SPRING     CLEAR     79  58  49 E8        30.13R
CARLSBAD       MOCLDY    76  64  66 S6        30.11R
DRYDEN           N/A     89  63  41 N8        30.01R
FORT STOCKTON  PTCLDY    80  59  48 E7        30.10R
GUAD PASS      PTCLDY    66  57  72 NE29      30.23F
HOBBS          PTCLDY    75  54  46 E5        30.15R
MARFA          PTCLDY    72  57  60 NE7       30.22R
MIDLAND AIRPK  PTCLDY    81  58  45 E6        30.12R
MIDLAND INTL   PTCLDY    81  58  45 E8        30.10R
ODESSA         PTCLDY    80  57  45 E5        30.12R
PECOS          MOCLDY    82  60  47 NE3       30.07R
PRESIDIO       FAIR      88  61  40 MISG      30.01R
SEMINOLE       CLEAR     77  55  45 E5        30.13S HAZE
SNYDER         CLEAR     75  61  61 E6        30.12R
WINK           PTCLDY    81  59  47 E5        30.08R
$$
...OTHER STATIONS IN TEXAS...

CITY           SKY/WX    TMP DP  RH WIND       PRES   REMARKS
ABILENE        CLOUDY    76  64  66 NE7       30.08R
AMARILLO       CLOUDY    70  55  59 E6        30.18S
AUSTIN         MOCLDY    86  67  52 NE15G23   29.96R
BROWNSVILLE    CLEAR     83  76  79 SE10      29.91S
CORPUS CHRISTI PTCLDY    83  75  77 S17       29.90R
DALLAS FTW     CLOUDY    71  65  81 N14       30.00R
DEL RIO        CLOUDY    85  71  63 NE7       29.91R
EL PASO        MOCLDY    81  58  45 E15       30.07R
HOUSTON INT    CLOUDY    82  77  84 S9        29.90R THUNDER
LUBBOCK        MOCLDY    71  54  54 NE7       30.15R
SAN ANGELO     CLEAR     77  62  59 NE7       30.06R
SAN ANTONIO    CLOUDY    89  70  53 N17       29.93R
WACO           PTCLDY    75  65  70 N12       29.98R
WICHITA FALLS  NOT AVBL
$$
...OTHER LOCATIONS IN NEW MEXICO...

CITY           SKY/WX    TMP DP  RH WIND       PRES   REMARKS
ALAMAGORDO     MOCLDY    81  61  50 S9        30.10R
ALBUQUERQUE    CLOUDY    67  56  67 E18       30.25R
CANNON AFB     MOCLDY    71  53  54 SE7       30.20R
CLOVIS         NOT AVBL
HOLLOMAN AFB   MOCLDY    81  63  54 S14       30.08R
ROSWELL        MOCLDY    74  63  68 S7        30.14R
RUIDOSO        CLOUDY    63  59  88 SE14      30.35R
SANTA FE       CLOUDY    60  57  89 S8        30.28F
TRUTH OR CONSE LGT RAIN  71  60  68 W20       30.15R
TUCUMCARI      CLOUDY    76  52  43 E7        30.18R
$$

USA.gov is the U.S. government's official web portal to all federal, state and local government web resources and services.